Temp
-0 -1 -1 -1 -1 -2 -2 -2 -3 -3 -3 -3 -3 -3 -3 -3 -4 -3 -2 -3 -3 -3 -3 -2 -2 -2 -2 -2 -2 -2 -1 -2 -2 -1 -1 -0 -1 0 0 1 1 2 3
-0 -0 -1 -1 -1 -1 -1 -2 -2 -3 -3 -2 -2 -3 -3 -3 -3 -4 -4 -4 -4 -3 -3 -3 -3 -2 -2 -2 -1 -2 -1 -2 -2 -1 -1 -1 -1 -0 -1 0 1 2 3
0 0 -0 -0 -0 -1 -1 -2 -2 -2 -2 -2 -2 -2 -2 -3 -3 -3 -3 -4 -4 -3 -3 -3 -3 -3 -2 -2 -1 -1 -2 -1 -1 -1 -2 -2 -1 -1 -1 -0 -0 -0 2
0 0 0 -0 -0 -1 -1 -1 -2 -2 -2 -2 -2 -2 -2 -3 -3 -3 -4 -4 -4 -4 -4 -3 -4 -3 -2 -1 -1 -1 -2 -2 -1 -1 -2 -2 -1 -1 -1 -1 -0 0 1
1 1 0 -0 -1 -1 -1 -1 -1 -2 -2 -2 -2 -2 -2 -2 -3 -3 -3 -4 -4 -4 -4 -4 -4 -4 -3 -2 -2 -2 -2 -2 -2 -2 -2 -2 -2 -1 -1 -2 -2 -1 0
1 1 0 1 0 -0 -1 -1 -1 -1 -2 -2 -2 -2 -2 -2 -2 -3 -3 -3 -3 -4 -4 -4 -4 -3 -4 -3 -3 -2 -2 -2 -2 -2 -2 -2 -2 -2 -2 -2 -2 -2 -2
1 1 1 1 1 0 -0 -0 -1 -1 -1 -2 -2 -2 -2 -2 -2 -3 -3 -3 -3 -3 -4 -4 -3 -3 -4 -4 -3 -3 -2 -3 -3 -3 -2 -3 -3 -2 -3 -3 -2 -2 -2
2 2 1 1 1 1 1 1 0 -0 -1 -1 -2 -2 -2 -2 -2 -2 -3 -3 -3 -3 -3 -3 -3 -3 -3 -3 -3 -3 -3 -4 -4 -4 -4 -4 -4 -3 -3 -3 -3 -3 -2
2 2 2 1 1 1 1 1 1 0 -0 -1 -1 -1 -1 -1 -3 -3 -3 -2 -3 -3 -3 -3 -3 -3 -3 -3 -3 -3 -3 -4 -4 -4 -5 -4 -5 -5 -4 -4 -4 -3 -3
3 3 2 2 1 1 1 1 1 1 0 -0 -0 -1 -1 -1 -2 -3 -3 -2 -2 -2 -3 -3 -3 -3 -3 -3 -3 -4 -4 -5 -5 -4 -4 -4 -5 -5 -5 -5 -5 -4 -4
3 3 2 2 2 2 2 2 1 1 0 0 0 -0 -1 -1 -1 -3 -3 -2 -2 -2 -2 -2 -3 -4 -3 -4 -4 -4 -5 -5 -5 -5 -5 -5 -5 -5 -5 -5 -5 -5 -5
3 3 3 2 2 2 2 2 1 1 1 1 1 0 -0 -0 -1 -1 -3 -2 -2 -2 -2 -2 -3 -3 -3 -3 -3 -4 -4 -4 -4 -4 -4 -5 -5 -5 -5 -5 -5 -5 -5
3 3 3 3 3 3 2 2 2 2 2 1 1 1 0 0 0 -0 -1 -1 -1 -1 -2 -2 -2 -2 -3 -3 -3 -3 -3 -3 -3 -3 -4 -5 -5 -5 -5 -5 -5 -5 -5
3 3 3 3 3 3 3 3 2 2 2 2 1 2 1 1 1 0 -0 -0 -1 -1 -2 -2 -2 -2 -2 -3 -3 -3 -3 -3 -3 -4 -4 -4 -6 -5 -5 -5 -5 -5 -5
3 3 3 3 3 3 3 3 2 2 2 1 1 1 1 1 0 -1 -0 -1 -0 -1 -1 -1 -1 -1 -1 -1 -2 -3 -3 -3 -3 -3 -3 -4 -4 -5 -4 -5 -5 -5 -5
2 2 3 3 3 3 2 2 2 1 1 1 1 1 1 0 0 -0 -0 -1 -1 -1 -0 -0 -1 -1 -2 -2 -2 -1 -2 -3 -3 -3 -3 -3 -3 -3 -3 -4 -4 -4 -5
2 2 2 3 2 2 2 2 2 1 1 1 1 1 0 0 0 0 -0 -1 -1 -1 -0 -1 -1 -1 -2 -2 -2 -2 -2 -2 -2 -3 -3 -3 -3 -3 -3 -3 -3 -3 -4
1 1 2 2 2 2 2 2 2 2 2 2 1 1 0 0 -0 -0 -0 -1 -0 -0 -1 -1 -1 -2 -2 -2 -2 -2 -2 -1 -1 -2 -2 -3 -2 -2 -3 -3 -3 -3 -3
1 1 1 1 1 1 1 1 1 1 1 1 1 1 1 1 0 -0 -0 -0 -1 -0 -1 -1 -2 -2 -2 -2 -2 -2 -2 -2 -2 -1 -2 -2 -2 -3 -3 -3 -3 -3 -4
0 0 0 1 1 1 1 1 1 1 1 1 1 0 1 1 0 -0 -1 -1 -1 -1 -1 -2 -2 -2 -2 -2 -1 -1 -1 -1 -1 -1 -1 -2 -2 -2 -3 -3 -3 -3 -3
0 -0 0 0 -0 0 0 0 0 0 -0 -0 -0 -0 -1 -1 -1 -1 -1 -2 -2 -2 -2 -2 -2 -2 -2 -1 -1 -1 -1 -1 -1 -1 -2 -2 -2 -2 -2 -2 -2 -3 -3
-1 -1 -0 -0 -0 -0 -1 -0 -0 -0 -1 -1 -1 -1 -2 -2 -2 -2 -2 -2 -3 -3 -3 -3 -3 -2 -2 -2 -2 -1 -1 -1 -1 -1 -1 -1 -1 -2 -2 -2 -2 -2 -2
-2 -2 -1 -1 -1 -1 -1 -1 -1 -1 -1 -2 -2 -2 -2 -3 -3 -3 -3 -3 -3 -3 -3 -3 -3 -2 -2 -2 -3 -3 -1 -1 -2 -2 -1 -1 -1 -2 -2 -2 -3 -3 -2
-4 -3 -2 -2 -1 -1 -1 -1 -2 -2 -1 -2 -2 -2 -3 -3 -4 -4 -4 -4 -4 -4 -4 -4 -3 -3 -3 -3 -2 -3 -2 -2 -2 -2 -2 -2 -2 -2 -2 -2 -2 -2 -3
-4 -4 -3 -2 -2 -2 -2 -2 -2 -2 -2 -2 -2 -2 -3 -4 -4 -4 -4 -4 -4 -4 -4 -4 -4 -4 -3 -3 -3 -3 -3 -2 -2 -2 -2 -2 -2 -2 -2 -2 -2 -2 -3
-4 -4 -3 -2 -2 -2 -2 -1 -2 -3 -2 -2 -2 -2 -3 -3 -4 -4 -4 -4 -4 -4 -4 -4 -4 -4 -4 -3 -3 -3 -3 -2 -2 -2 -2 -2 -2 -1 -1 -2 -2 -2 -3
Height
1526 1522 1519 1515 1511 1509 1504 1500 1495 1490 1485 1481 1477 1472 1468 1464 1460 1455 1451 1448 1445 1442 1440 1436 1435 1434 1433 1432 1432 1432 1432 1433 1434 1435 1435 1436 1436 1436 1437 1438 1441 1442 1444
1527 1523 1519 1516 1512 1509 1505 1500 1496 1492 1487 1483 1479 1474 1470 1466 1462 1458 1454 1450 1447 1444 1441 1437 1435 1433 1432 1432 1432 1432 1432 1432 1432 1433 1434 1435 1435 1435 1436 1437 1437 1439 1441
1527 1523 1520 1516 1513 1509 1505 1502 1498 1493 1489 1485 1481 1476 1471 1467 1464 1460 1457 1454 1450 1446 1443 1439 1436 1433 1432 1432 1431 1431 1430 1430 1430 1431 1432 1432 1432 1432 1433 1433 1434 1436 1436
1527 1524 1520 1517 1514 1510 1507 1504 1499 1495 1491 1487 1483 1478 1473 1468 1465 1462 1458 1455 1451 1447 1444 1441 1437 1434 1432 1431 1429 1428 1429 1429 1430 1429 1429 1429 1429 1429 1428 1429 1430 1431 1432
1527 1524 1521 1518 1515 1512 1508 1505 1501 1497 1493 1489 1485 1481 1476 1470 1468 1463 1459 1456 1452 1448 1445 1442 1438 1436 1433 1430 1428 1427 1427 1426 1427 1427 1427 1427 1427 1426 1426 1425 1425 1426 1426
1527 1524 1522 1518 1515 1512 1509 1505 1501 1497 1493 1490 1486 1481 1478 1473 1470 1465 1460 1456 1453 1449 1446 1443 1440 1438 1434 1431 1429 1428 1428 1426 1426 1425 1425 1424 1424 1424 1424 1423 1423 1423 1423
1527 1525 1521 1519 1517 1512 1509 1506 1501 1497 1493 1489 1485 1482 1478 1475 1472 1467 1462 1458 1454 1450 1446 1444 1442 1439 1435 1433 1429 1427 1425 1425 1425 1424 1423 1423 1422 1422 1421 1421 1419 1419 1418
1527 1524 1521 1520 1515 1515 1510 1506 1502 1497 1494 1490 1486 1483 1479 1475 1472 1469 1463 1459 1455 1451 1447 1445 1442 1439 1436 1434 1431 1428 1426 1424 1423 1422 1420 1420 1419 1418 1417 1415 1415 1414 1414
1526 1524 1522 1519 1516 1515 1510 1505 1502 1498 1495 1491 1488 1483 1478 1475 1471 1468 1463 1459 1455 1452 1449 1446 1443 1440 1438 1434 1431 1428 1426 1424 1422 1420 1419 1418 1417 1415 1413 1411 1409 1409 1408
1524 1522 1521 1518 1518 1515 1510 1506 1504 1500 1496 1493 1489 1484 1481 1476 1469 1466 1462 1458 1455 1453 1450 1447 1443 1441 1438 1435 1430 1427 1424 1421 1418 1417 1416 1415 1414 1412 1410 1408 1406 1404 1404
1523 1521 1521 1518 1516 1513 1510 1507 1505 1501 1499 1495 1490 1486 1480 1475 1471 1468 1465 1460 1455 1453 1449 1446 1442 1440 1436 1433 1430 1427 1424 1420 1417 1414 1412 1410 1409 1408 1406 1405 1404 1402 1401
1521 1519 1518 1516 1514 1513 1510 1508 1506 1502 1500 1497 1492 1488 1483 1478 1475 1470 1466 1462 1459 1455 1451 1447 1443 1439 1436 1432 1429 1426 1423 1420 1416 1412 1409 1407 1405 1404 1403 1401 1400 1399 1398
1518 1518 1516 1514 1513 1512 1510 1507 1505 1501 1499 1496 1492 1488 1485 1480 1475 1470 1468 1465 1460 1455 1451 1447 1444 1440 1437 1432 1429 1425 1422 1418 1415 1411 1408 1405 1402 1400 1398 1397 1396 1395 1393
1516 1515 1514 1513 1512 1510 1507 1506 1504 1501 1499 1495 1492 1487 1483 1479 1475 1473 1469 1465 1460 1456 1452 1448 1444 1440 1436 1433 1429 1425 1422 1418 1414 1411 1408 1405 1402 1398 1396 1394 1392 1391 1389
1514 1513 1512 1511 1510 1509 1506 1504 1502 1499 1496 1494 1491 1486 1483 1480 1478 1475 1470 1465 1459 1455 1452 1448 1443 1439 1436 1433 1429 1426 1422 1419 1415 1412 1408 1404 1401 1398 1395 1393 1391 1388 1385
1511 1510 1509 1509 1507 1506 1504 1502 1500 1498 1496 1493 1490 1487 1484 1481 1477 1474 1470 1465 1461 1456 1452 1447 1442 1439 1435 1431 1428 1425 1422 1418 1414 1411 1408 1405 1401 1397 1394 1391 1388 1386 1382
1508 1507 1507 1506 1505 1504 1503 1501 1499 1497 1494 1491 1489 1486 1483 1481 1476 1473 1469 1464 1461 1458 1454 1448 1444 1440 1435 1432 1428 1424 1420 1417 1414 1410 1407 1404 1401 1398 1395 1391 1388 1384 1381
1504 1504 1504 1504 1503 1501 1500 1498 1496 1494 1492 1490 1487 1484 1481 1478 1475 1471 1468 1464 1461 1455 1450 1447 1443 1439 1436 1432 1428 1424 1420 1416 1413 1410 1406 1403 1400 1397 1394 1391 1387 1383 1379
1500 1500 1500 1501 1500 1499 1498 1496 1493 1490 1488 1486 1484 1482 1479 1476 1472 1469 1465 1460 1457 1453 1450 1446 1442 1439 1436 1432 1428 1424 1419 1415 1411 1408 1405 1402 1399 1395 1392 1388 1384 1381 1376
1495 1496 1496 1496 1496 1496 1495 1494 1491 1488 1486 1483 1480 1478 1476 1473 1469 1466 1461 1458 1454 1452 1448 1444 1442 1439 1435 1432 1428 1424 1419 1415 1411 1407 1404 1400 1397 1393 1388 1384 1380 1376 1372
1490 1490 1491 1492 1492 1492 1491 1490 1488 1486 1484 1481 1479 1476 1473 1470 1466 1462 1459 1456 1452 1448 1445 1443 1440 1437 1435 1431 1427 1423 1419 1414 1410 1406 1402 1398 1394 1390 1386 1382 1377 1373 1368
1485 1486 1487 1487 1487 1488 1488 1486 1484 1483 1481 1479 1477 1475 1472 1468 1465 1461 1458 1454 1451 1447 1444 1441 1438 1436 1432 1428 1426 1421 1417 1413 1409 1405 1401 1397 1393 1389 1385 1380 1375 1371 1366
1481 1482 1483 1483 1484 1483 1483 1482 1481 1479 1478 1476 1475 1472 1470 1466 1463 1460 1456 1452 1449 1446 1442 1440 1436 1433 1430 1427 1424 1421 1416 1412 1408 1404 1400 1396 1392 1387 1383 1378 1374 1369 1365
1477 1478 1479 1479 1480 1480 1480 1479 1477 1476 1474 1472 1471 1469 1467 1464 1461 1458 1454 1451 1447 1444 1441 1438 1434 1431 1427 1425 1422 1419 1417 1412 1407 1404 1400 1396 1392 1388 1383 1379 1374 1369 1364
1474 1474 1475 1476 1477 1476 1475 1475 1475 1473 1471 1469 1467 1466 1464 1462 1459 1456 1453 1449 1446 1443 1439 1436 1432 1429 1426 1424 1421 1418 1415 1412 1408 1403 1399 1396 1392 1388 1383 1379 1374 1370 1365
1471 1471 1472 1473 1473 1472 1471 1471 1469 1468 1467 1466 1464 1462 1461 1459 1457 1454 1451 1448 1445 1441 1438 1435 1432 1429 1426 1422 1419 1416 1414 1412 1408 1403 1399 1395 1392 1388 1383 1379 1375 1370 1366
Wind_Speed
15 17 16 16 15 16 19 22 22 24 21 21 20 21 19 21 24 21 20 16 14 16 16 14 9 8 2 2 4 5 4 6 11 12 11 10 12 12 10 12 14 15 18
15 15 15 16 15 15 17 19 19 24 23 17 20 18 19 19 21 20 23 21 19 19 17 18 16 7 5 5 5 5 5 7 8 10 10 9 10 11 13 18 16 18 21
14 14 14 16 16 14 16 18 20 21 24 15 19 22 17 17 18 18 17 18 20 18 19 19 15 16 3 4 6 6 7 5 7 8 9 11 11 12 12 12 18 20 19
12 13 14 16 15 14 15 16 19 19 21 18 15 19 21 22 20 21 13 14 16 14 16 18 18 16 8 9 10 9 7 5 6 8 10 12 10 9 10 10 14 15 22
11 12 14 15 14 13 14 15 16 19 19 20 18 15 20 19 20 19 17 16 18 17 16 15 16 21 18 12 12 5 5 8 8 10 11 11 12 12 9 10 12 14 18
9 11 13 14 14 14 14 14 14 15 16 18 17 18 15 20 16 21 19 18 18 19 18 14 16 17 21 19 12 10 7 8 3 5 9 8 11 9 12 12 14 16 15
8 10 12 14 15 14 14 14 14 15 15 15 17 16 15 15 18 18 19 18 17 18 17 18 16 17 18 23 15 12 7 2 6 7 9 10 11 13 16 13 13 16 18
6 8 11 14 14 15 15 16 15 14 15 15 16 17 17 15 16 17 18 17 16 16 16 13 15 16 14 19 18 13 11 10 6 6 7 9 12 15 16 17 16 15 19
5 7 10 12 14 16 16 17 17 16 15 16 17 17 18 16 18 17 18 15 15 15 17 12 13 17 15 15 15 16 12 10 10 6 4 4 6 8 9 11 12 18 19
2 5 8 10 13 15 16 16 17 17 16 16 16 17 20 19 17 16 16 16 16 15 13 13 11 13 11 11 13 15 15 15 13 10 8 8 7 6 7 8 9 9 11
1 4 6 7 8 10 11 13 14 15 15 16 17 19 19 19 20 17 17 18 17 15 14 15 14 12 12 9 7 13 13 15 12 11 11 12 12 11 10 10 9 9 9
2 2 3 4 4 5 7 9 11 12 14 15 16 18 19 19 20 20 18 18 17 17 16 16 14 13 13 13 11 10 11 13 11 10 9 9 11 12 13 12 11 12 12
4 3 3 2 4 5 6 7 9 11 13 15 16 18 20 19 19 19 19 19 18 17 16 14 13 12 12 12 13 13 13 14 14 14 14 14 12 11 11 12 12 13 15
7 5 4 3 3 4 6 7 9 10 12 14 16 17 18 18 20 21 20 18 18 17 16 14 13 12 12 12 11 12 14 16 16 15 15 14 13 10 9 10 10 12 17
9 8 6 5 4 5 6 7 7 10 12 15 16 17 19 20 20 19 19 18 17 17 15 13 13 14 14 13 12 13 13 13 14 15 16 16 14 12 10 10 11 11 13
11 10 9 7 6 6 5 5 9 9 10 10 12 14 14 15 16 16 16 16 16 15 15 17 18 18 18 17 17 15 14 13 14 14 14 15 15 14 13 11 10 11 13
12 11 10 9 8 8 7 7 5 4 8 10 11 12 14 13 14 15 15 15 15 15 16 17 18 18 19 18 18 17 17 15 14 13 13 13 13 11 11 11 11 12 14
13 12 11 11 10 10 9 9 9 10 9 8 10 12 13 13 14 15 15 14 13 15 17 18 18 18 18 19 18 19 17 16 15 14 12 12 11 12 12 13 15 16 15
14 13 12 11 11 11 11 11 11 11 12 12 12 11 12 12 13 14 15 16 16 16 17 16 17 18 18 18 18 18 18 18 16 15 14 13 14 15 16 18 19 20 21
16 14 13 12 11 11 12 12 12 12 12 13 14 14 14 14 13 14 16 16 15 15 16 17 17 17 18 20 20 19 18 18 17 16 15 16 16 16 18 20 20 22 22
16 15 13 11 11 11 12 12 12 13 13 14 14 14 15 16 16 16 17 18 18 17 16 17 16 16 16 20 20 20 20 19 18 17 16 17 18 19 19 18 19 20 21
12 12 12 11 11 11 12 13 13 13 14 14 14 14 15 15 16 17 17 17 17 17 18 17 16 16 16 16 21 23 21 21 20 19 19 18 18 19 20 20 20 20 20
12 10 11 11 11 11 11 12 13 13 13 14 15 16 15 16 16 17 18 18 17 17 17 16 15 14 14 13 13 19 23 21 21 21 20 20 19 18 20 21 21 20 20
12 11 11 12 12 12 12 13 14 14 14 14 15 15 15 15 16 16 17 17 17 16 16 15 14 14 14 13 11 12 19 22 21 20 20 19 19 18 18 19 20 21 20
12 12 12 12 11 11 12 12 13 13 13 12 12 12 12 13 14 15 16 16 16 15 16 15 15 15 14 14 11 10 13 19 20 19 19 18 18 18 18 18 19 19 19
12 10 11 10 9 9 9 9 9 10 10 9 10 10 11 11 12 14 15 16 16 16 16 16 16 16 15 13 11 11 10 16 19 19 19 19 18 18 17 18 18 19 19
Wind_Direction
15 17 19 19 21 22 26 28 22 16 15 19 20 27 26 22 14 20 28 33 28 22 12 359 336 342 17 32 331 296 296 275 267 267 272 294 302 266 229 208 209 220 233
15 18 22 22 24 26 25 25 22 20 21 23 22 28 30 26 22 20 21 33 30 27 19 17 24 320 308 344 334 349 297 285 276 286 299 302 291 276 275 236 205 223 230
15 20 26 26 28 31 23 23 26 27 27 32 26 27 33 35 31 13 20 16 21 24 23 23 19 11 338 285 309 290 282 288 275 283 293 301 301 289 261 259 259 244 222
18 20 27 28 30 31 23 22 25 27 30 35 31 29 28 37 20 8 15 13 12 14 16 22 33 12 6 357 312 293 254 247 255 269 285 292 306 301 284 279 257 256 244
23 23 27 27 25 23 21 18 21 27 26 25 33 34 31 43 24 4 17 15 20 25 19 23 31 31 27 18 22 81 20 257 256 258 271 284 289 295 299 278 281 273 252
25 24 24 25 23 20 17 16 17 17 18 20 21 30 34 35 17 12 18 17 19 21 19 26 29 24 20 19 8 323 354 5 14 250 260 267 274 279 301 304 273 272 283
28 22 20 22 23 20 15 10 12 13 12 15 17 19 27 35 16 10 11 22 22 22 22 34 33 19 18 15 16 16 345 314 318 299 292 291 295 290 294 291 275 261 262
30 24 25 23 19 23 17 14 16 13 11 11 11 12 14 24 25 8 3 14 18 21 26 35 25 15 23 8 16 15 20 22 1 324 300 279 285 288 282 278 276 269 259
19 26 30 24 18 23 22 21 24 23 20 18 13 12 16 20 28 14 8 14 20 24 23 41 25 22 15 358 2 6 5 0 348 343 325 324 321 314 315 303 280 265 270
7 21 31 26 24 26 28 28 30 30 29 29 26 23 26 25 29 19 14 26 28 21 16 27 34 22 2 6 352 1 0 343 334 323 308 300 293 303 313 313 318 307 269
345 359 23 24 27 27 25 27 34 32 33 33 30 30 26 26 27 21 14 10 12 10 13 15 17 8 10 17 5 358 350 338 338 325 307 299 302 300 301 296 296 304 302
265 311 9 18 14 16 11 15 21 23 28 29 29 31 27 24 25 25 18 15 10 5 7 6 6 4 5 11 14 8 7 8 3 354 338 319 301 288 283 285 289 288 288
243 270 302 338 358 357 357 358 6 9 17 21 22 25 23 19 23 23 19 17 14 12 9 3 3 1 5 10 14 9 8 8 8 9 8 1 339 320 311 298 288 287 288
240 254 272 301 323 332 337 348 351 0 11 10 14 16 20 12 16 18 14 12 14 17 14 8 9 11 13 11 8 10 9 9 7 3 358 359 5 10 353 331 314 299 295
236 249 263 278 295 314 326 334 344 352 355 3 4 5 6 7 10 6 5 9 8 13 13 15 21 22 20 20 18 10 7 5 7 7 4 1 1 359 358 347 340 333 320
235 245 255 264 281 298 314 323 328 340 339 345 345 353 358 355 357 359 2 4 5 8 4 16 19 18 16 13 9 9 6 4 3 3 360 357 2 8 11 10 359 349 339
234 244 252 261 275 288 299 310 309 310 321 327 335 337 343 349 348 349 354 357 355 360 9 13 13 12 12 10 7 6 2 357 355 360 1 2 0 3 7 12 11 2 357
238 247 254 261 274 278 287 297 306 312 316 316 322 327 336 339 341 340 344 344 349 360 3 5 6 6 6 6 7 4 3 0 353 347 347 350 350 350 346 342 343 343 346
236 244 253 262 273 280 285 291 294 299 306 311 314 314 317 323 331 328 330 334 346 351 355 357 356 359 0 2 2 5 3 1 359 350 343 338 331 326 324 321 319 319 319
237 242 250 258 266 276 283 287 292 296 301 306 312 318 319 322 323 325 326 332 337 342 343 348 353 354 356 358 360 360 2 0 0 0 355 348 343 339 335 333 331 330 329
236 239 248 255 265 273 279 285 291 297 304 309 315 320 323 327 328 325 325 329 334 336 337 340 346 352 354 353 357 0 360 360 359 0 0 358 352 349 347 346 344 343 341
238 237 244 251 260 272 282 285 289 297 303 309 314 319 322 321 321 323 326 330 334 335 333 336 341 347 346 356 355 353 357 358 358 358 360 359 357 355 353 351 351 352 351
239 239 247 256 263 271 279 285 289 296 302 308 314 317 320 321 324 328 333 336 338 337 334 339 339 340 340 345 357 355 352 355 357 356 356 356 357 357 357 356 354 355 357
245 239 249 254 263 271 279 284 288 293 300 305 309 312 316 321 328 334 336 339 341 341 338 344 341 339 337 343 350 353 355 353 354 354 354 356 356 358 357 358 359 358 358
238 248 245 252 261 271 279 285 291 296 300 304 311 315 321 325 334 339 342 345 347 344 346 348 345 346 345 348 343 345 2 355 353 354 354 358 357 358 0 1 2 3 4
234 245 240 247 259 272 287 297 300 304 312 319 328 334 339 342 345 350 354 353 355 353 352 351 355 356 354 351 343 344 344 4 358 356 356 355 359 1 4 6 6 6 9